Time,TemperatureF,DewpointF,PressureIn,WindDirection,WindDirectionDegrees,WindSpeedMPH,WindSpeedGustMPH,Humidity,HourlyPrecipIn,Conditions,Clouds,dailyrainin,SoftwareType,DateUTC
2013-07-10 00:01:00,80.4,71.3,30.02,WSW,241,2.3,0.0,74,0.00,RA,,0.00,WeatherDisplay:10.37,2013-07-10 04:01:00,
2013-07-10 00:02:00,80.4,71.3,30.02,WSW,242,1.0,0.0,74,0.00,RA,,0.00,WeatherDisplay:10.37,2013-07-10 04:02:00,
2013-07-10 00:04:00,80.4,71.3,30.02,WSW,241,0.0,0.0,74,0.00,RA,,0.00,WeatherDisplay:10.37,2013-07-10 04:04:00,
2013-07-10 00:06:00,80.3,71.3,30.01,WSW,241,1.1,0.0,74,0.00,RA,,0.00,WeatherDisplay:10.37,2013-07-10 04:06:00,
2013-07-10 00:09:00,80.3,71.6,30.02,WSW,242,0.0,0.0,75,0.00,RA,,0.00,WeatherDisplay:10.37,2013-07-10 04:09:00,
2013-07-10 00:14:00,80.2,71.6,30.02,WSW,241,1.1,0.0,75,0.00,CLR,,0.00,WeatherDisplay:10.37,2013-07-10 04:14:00,
2013-07-10 00:20:00,80.0,71.8,30.02,WSW,242,5.0,5.0,76,0.00,CLR,,0.00,WeatherDisplay:10.37,2013-07-10 04:20:00,
2013-07-10 00:25:00,79.9,71.7,30.02,WSW,241,3.5,3.5,76,0.00,CLR,,0.00,WeatherDisplay:10.37,2013-07-10 04:25:00,
2013-07-10 00:30:00,79.9,72.0,30.01,WSW,241,2.0,0.0,77,0.00,CLR,,0.00,WeatherDisplay:10.37,2013-07-10 04:30:00,
2013-07-10 00:35:00,79.8,71.9,30.01,WSW,241,2.3,2.3,77,0.00,CLR,,0.00,WeatherDisplay:10.37,2013-07-10 04:35:00,
2013-07-10 00:40:00,79.7,72.2,30.01,WSW,241,2.3,2.3,78,0.00,CLR,,0.00,WeatherDisplay:10.37,2013-07-10 04:40:00,
2013-07-10 00:45:00,79.6,72.1,30.02,WSW,241,4.0,4.0,78,0.00,CLR,,0.00,WeatherDisplay:10.37,2013-07-10 04:45:00,
2013-07-10 00:50:00,79.5,72.4,30.01,WSW,239,6.0,6.0,79,0.00,CLR,,0.00,WeatherDisplay:10.37,2013-07-10 04:50:00,
2013-07-10 00:55:00,79.3,72.2,30.01,WSW,239,1.1,1.1,79,0.00,CLR,,0.00,WeatherDisplay:10.37,2013-07-10 04:55:00,
2013-07-10 01:00:00,79.2,72.5,30.02,SW,236,5.0,5.0,80,0.00,CLR,,0.00,WeatherDisplay:10.37,2013-07-10 05:00:00,
2013-07-10 01:05:00,79.0,72.3,30.01,SW,228,3.5,3.5,80,0.00,CLR,,0.00,WeatherDisplay:10.37,2013-07-10 05:05:00,
2013-07-10 01:10:00,78.8,72.5,30.01,SW,222,1.1,0.0,81,0.00,CLR,,0.00,WeatherDisplay:10.37,2013-07-10 05:10:00,
2013-07-10 01:15:00,78.7,72.4,30.01,SW,222,3.5,0.0,81,0.00,CLR,,0.00,WeatherDisplay:10.37,2013-07-10 05:15:00,
2013-07-10 01:20:00,78.7,72.4,30.01,SW,222,3.0,3.0,81,0.00,CLR,,0.00,WeatherDisplay:10.37,2013-07-10 05:20:00,
2013-07-10 01:25:00,78.5,72.5,30.01,SW,220,3.5,3.5,82,0.00,CLR,,0.00,WeatherDisplay:10.37,2013-07-10 05:25:00,
2013-07-10 01:30:00,78.4,72.4,30.01,SW,220,1.1,1.1,82,0.00,CLR,,0.00,WeatherDisplay:10.37,2013-07-10 05:30:00,
2013-07-10 01:35:00,78.3,72.3,30.01,SW,218,3.5,3.5,82,0.00,CLR,,0.00,WeatherDisplay:10.37,2013-07-10 05:35:00,
2013-07-10 01:40:00,78.1,72.2,30.01,SW,214,7.0,7.0,82,0.00,CLR,,0.00,WeatherDisplay:10.37,2013-07-10 05:40:00,
2013-07-10 01:45:00,78.1,72.5,30.01,SW,214,1.1,1.1,83,0.00,CLR,,0.00,WeatherDisplay:10.37,2013-07-10 05:45:00,
2013-07-10 01:50:00,78.0,72.4,30.01,SW,215,3.0,3.0,83,0.00,CLR,,0.00,WeatherDisplay:10.37,2013-07-10 05:50:00,
2013-07-10 01:55:00,77.9,72.3,30.01,SW,214,1.0,1.0,83,0.00,CLR,,0.00,WeatherDisplay:10.37,2013-07-10 05:55:00,
2013-07-10 02:00:00,77.8,72.2,30.01,SSW,212,5.0,5.0,83,0.00,CLR,,0.00,WeatherDisplay:10.37,2013-07-10 06:00:00,
2013-07-10 02:05:00,77.6,72.0,30.01,SSW,212,3.5,3.5,83,0.00,CLR,,0.00,WeatherDisplay:10.37,2013-07-10 06:05:00,
2013-07-10 02:10:00,77.6,72.0,30.00,SSW,212,1.1,0.0,83,0.00,CLR,,0.00,WeatherDisplay:10.37,2013-07-10 06:10:00,
2013-07-10 02:15:00,77.5,71.9,30.00,SSW,211,3.5,3.5,83,0.00,CLR,,0.00,WeatherDisplay:10.37,2013-07-10 06:15:00,
2013-07-10 02:20:00,77.4,71.8,30.00,SSW,212,3.0,3.0,83,0.00,CLR,,0.00,WeatherDisplay:10.37,2013-07-10 06:20:00,
2013-07-10 02:25:00,77.3,71.7,30.00,SSW,205,2.3,2.3,83,0.00,CLR,,0.00,WeatherDisplay:10.37,2013-07-10 06:25:00,
2013-07-10 02:30:00,77.3,71.7,30.00,SSW,205,4.0,4.0,83,0.00,CLR,,0.00,WeatherDisplay:10.37,2013-07-10 06:30:00,
2013-07-10 02:35:00,77.2,71.6,30.00,SSW,201,8.1,8.1,83,0.00,CLR,,0.00,WeatherDisplay:10.37,2013-07-10 06:35:00,
2013-07-10 02:40:00,77.1,71.5,29.99,SSW,201,1.1,1.1,83,0.00,CLR,,0.00,WeatherDisplay:10.37,2013-07-10 06:40:00,
2013-07-10 02:45:00,77.0,71.4,29.99,SSW,201,3.0,3.0,83,0.00,CLR,,0.00,WeatherDisplay:10.37,2013-07-10 06:45:00,
2013-07-10 02:51:00,77.0,71.4,29.99,SSW,201,5.8,5.8,83,0.00,CLR,,0.00,WeatherDisplay:10.37,2013-07-10 06:51:00,
2013-07-10 02:56:00,77.0,71.4,29.99,SSW,197,2.0,2.0,83,0.00,CLR,,0.00,WeatherDisplay:10.37,2013-07-10 06:56:00,
2013-07-10 03:01:00,76.9,71.3,29.99,SSW,197,2.3,2.3,83,0.00,CLR,,0.00,WeatherDisplay:10.37,2013-07-10 07:01:00,
2013-07-10 03:06:00,76.9,71.3,29.99,SSW,198,4.0,4.0,83,0.00,SCT,,0.00,WeatherDisplay:10.37,2013-07-10 07:06:00,
2013-07-10 03:11:00,76.8,71.2,29.99,SSW,198,8.1,8.1,83,0.00,SCT,,0.00,WeatherDisplay:10.37,2013-07-10 07:11:00,
2013-07-10 03:16:00,76.8,71.2,29.99,SSW,198,1.1,0.0,83,0.00,SCT,,0.00,WeatherDisplay:10.37,2013-07-10 07:16:00,
2013-07-10 03:21:00,76.7,71.1,29.99,SSW,199,4.0,4.0,83,0.00,SCT,,0.00,WeatherDisplay:10.37,2013-07-10 07:21:00,
2013-07-10 03:26:00,76.7,71.1,29.99,SSW,211,3.5,3.5,83,0.00,SCT,,0.00,WeatherDisplay:10.37,2013-07-10 07:26:00,
2013-07-10 03:31:00,76.6,71.0,29.99,SSW,211,2.0,2.0,83,0.00,SCT,,0.00,WeatherDisplay:10.37,2013-07-10 07:31:00,
2013-07-10 03:36:00,76.6,71.0,29.99,SSW,211,4.0,4.0,83,0.00,SCT,,0.00,WeatherDisplay:10.37,2013-07-10 07:36:00,
2013-07-10 03:41:00,76.6,71.0,29.99,SSW,211,3.5,3.5,83,0.00,SCT,,0.00,WeatherDisplay:10.37,2013-07-10 07:41:00,
2013-07-10 03:46:00,76.5,70.9,29.99,SSW,210,4.0,4.0,83,0.00,SCT,,0.00,WeatherDisplay:10.37,2013-07-10 07:46:00,
2013-07-10 03:51:00,76.4,70.9,29.99,SSW,211,3.5,3.5,83,0.00,SCT,,0.00,WeatherDisplay:10.37,2013-07-10 07:51:00,
2013-07-10 03:56:00,76.4,71.2,29.99,SSW,211,3.5,3.5,84,0.00,SCT,,0.00,WeatherDisplay:10.37,2013-07-10 07:56:00,
2013-07-10 04:01:00,76.4,71.2,29.99,SSW,211,0.0,0.0,84,0.00,SCT,,0.00,WeatherDisplay:10.37,2013-07-10 08:01:00,
2013-07-10 04:06:00,76.4,71.2,29.99,SSW,211,3.5,3.5,84,0.00,SCT,,0.00,WeatherDisplay:10.37,2013-07-10 08:06:00,
2013-07-10 04:11:00,76.4,71.2,29.99,SSW,212,5.0,5.0,84,0.00,SCT,,0.00,WeatherDisplay:10.37,2013-07-10 08:11:00,
2013-07-10 04:16:00,76.4,71.2,29.99,SSW,212,1.1,0.0,84,0.00,SCT,,0.00,WeatherDisplay:10.37,2013-07-10 08:16:00,
2013-07-10 04:21:00,76.4,71.2,29.99,SSW,212,3.5,3.5,84,0.00,SCT,,0.00,WeatherDisplay:10.37,2013-07-10 08:21:00,
2013-07-10 04:26:00,76.4,71.2,29.99,SSW,211,3.5,3.5,84,0.00,SCT,,0.00,WeatherDisplay:10.37,2013-07-10 08:26:00,
2013-07-10 04:31:00,76.4,71.2,29.99,SSW,210,3.5,3.5,84,0.00,SCT,,0.00,WeatherDisplay:10.37,2013-07-10 08:31:00,
2013-07-10 04:36:00,76.4,71.2,29.99,SSW,211,1.0,0.0,84,0.00,SCT,,0.00,WeatherDisplay:10.37,2013-07-10 08:36:00,
2013-07-10 04:41:00,76.4,71.2,29.99,SSW,212,3.5,0.0,84,0.00,SCT,,0.00,WeatherDisplay:10.37,2013-07-10 08:41:00,
2013-07-10 04:46:00,76.4,71.2,29.99,SSW,212,4.0,4.0,84,0.00,SCT,,0.00,WeatherDisplay:10.37,2013-07-10 08:46:00,
2013-07-10 04:51:00,76.3,71.1,29.99,SSW,211,1.1,1.1,84,0.00,SCT,,0.00,WeatherDisplay:10.37,2013-07-10 08:51:00,
2013-07-10 04:56:00,76.2,71.4,29.99,SSW,211,3.5,3.5,85,0.00,SCT,,0.00,WeatherDisplay:10.37,2013-07-10 08:56:00,
2013-07-10 05:01:00,76.1,71.3,29.99,SSW,212,3.5,3.5,85,0.00,SCT,,0.00,WeatherDisplay:10.37,2013-07-10 09:01:00,
2013-07-10 05:06:00,76.1,71.3,29.99,SSW,212,4.0,4.0,85,0.00,BKN,,0.01,WeatherDisplay:10.37,2013-07-10 09:06:00,
2013-07-10 05:11:00,76.0,71.5,29.99,SSW,212,3.5,3.5,86,0.01,RA,,0.01,WeatherDisplay:10.37,2013-07-10 09:11:00,
2013-07-10 05:16:00,75.8,71.3,29.99,SSW,212,3.5,0.0,86,0.02,RA,,0.02,WeatherDisplay:10.37,2013-07-10 09:16:00,
2013-07-10 05:21:00,75.7,71.6,29.99,SSW,211,1.0,1.0,87,0.02,RA,,0.02,WeatherDisplay:10.37,2013-07-10 09:21:00,
2013-07-10 05:26:00,75.6,71.5,29.99,SSW,212,1.1,1.1,87,0.02,BKN,,0.02,WeatherDisplay:10.37,2013-07-10 09:26:00,
2013-07-10 05:31:00,75.5,71.7,29.99,SSW,210,0.0,0.0,88,0.02,BKN,,0.02,WeatherDisplay:10.37,2013-07-10 09:31:00,
2013-07-10 05:36:00,75.4,71.6,29.99,SSW,212,2.3,0.0,88,0.02,BKN,,0.02,WeatherDisplay:10.37,2013-07-10 09:36:00,
2013-07-10 05:41:00,75.4,71.6,29.99,SSW,212,1.1,0.0,88,0.02,BKN,,0.02,WeatherDisplay:10.37,2013-07-10 09:41:00,
2013-07-10 05:46:00,75.3,71.5,29.99,SSW,210,4.0,4.0,88,0.02,BKN,,0.02,WeatherDisplay:10.37,2013-07-10 09:46:00,
2013-07-10 05:52:00,75.3,71.5,29.99,SSW,212,1.1,0.0,88,0.02,BKN,,0.02,WeatherDisplay:10.37,2013-07-10 09:52:00,
2013-07-10 05:57:00,75.3,71.5,29.99,SSW,212,0.0,0.0,88,0.02,BKN,,0.02,WeatherDisplay:10.37,2013-07-10 09:57:00,
2013-07-10 06:02:00,75.2,71.4,29.99,SSW,212,1.1,1.1,88,0.02,CLR,,0.02,WeatherDisplay:10.37,2013-07-10 10:02:00,
2013-07-10 06:07:00,75.2,71.7,29.99,SSW,212,2.3,2.3,89,0.01,CLR,,0.02,WeatherDisplay:10.37,2013-07-10 10:07:00,
2013-07-10 06:12:00,75.2,71.7,29.99,SSW,211,3.5,0.0,89,0.01,CLR,,0.02,WeatherDisplay:10.37,2013-07-10 10:12:00,
2013-07-10 06:17:00,75.2,71.7,29.98,SSW,211,0.0,0.0,89,0.00,CLR,,0.02,WeatherDisplay:10.37,2013-07-10 10:17:00,
2013-07-10 06:22:00,75.1,71.6,29.99,SSW,212,0.0,0.0,89,0.00,CLR,,0.02,WeatherDisplay:10.37,2013-07-10 10:22:00,
2013-07-10 06:27:00,75.0,71.5,29.98,SSW,210,1.1,1.1,89,0.00,CLR,,0.02,WeatherDisplay:10.37,2013-07-10 10:27:00,
2013-07-10 06:32:00,74.9,71.4,29.99,SSW,212,0.0,0.0,89,0.00,CLR,,0.02,WeatherDisplay:10.37,2013-07-10 10:32:00,
2013-07-10 06:37:00,74.9,71.4,29.99,SSW,212,1.1,0.0,89,0.00,CLR,,0.02,WeatherDisplay:10.37,2013-07-10 10:37:00,
2013-07-10 06:42:00,74.8,71.3,29.99,SSW,212,0.0,0.0,89,0.00,CLR,,0.02,WeatherDisplay:10.37,2013-07-10 10:42:00,
2013-07-10 06:47:00,74.8,71.3,29.99,SSW,212,0.0,0.0,89,0.00,CLR,,0.02,WeatherDisplay:10.37,2013-07-10 10:47:00,
2013-07-10 06:52:00,74.8,71.3,29.99,SSW,211,0.0,0.0,89,0.00,CLR,,0.02,WeatherDisplay:10.37,2013-07-10 10:52:00,
2013-07-10 06:57:00,74.7,71.2,29.99,SSW,210,0.0,0.0,89,0.00,CLR,,0.02,WeatherDisplay:10.37,2013-07-10 10:57:00,
2013-07-10 07:02:00,74.7,71.2,29.98,SSW,212,2.0,2.0,89,0.00,CLR,,0.02,WeatherDisplay:10.37,2013-07-10 11:02:00,
2013-07-10 07:03:00,74.7,71.2,29.98,SSW,212,2.0,2.0,89,0.00,CLR,,0.02,WeatherDisplay:10.37,2013-07-10 11:03:00,
2013-07-10 07:08:00,74.6,71.1,29.98,SSW,212,2.3,2.3,89,0.00,CLR,,0.02,WeatherDisplay:10.37,2013-07-10 11:08:00,
2013-07-10 07:13:00,74.6,71.5,29.98,SSW,210,0.0,0.0,90,0.00,CLR,,0.02,WeatherDisplay:10.37,2013-07-10 11:13:00,
2013-07-10 07:18:00,74.7,71.6,29.98,SSW,211,3.5,0.0,90,0.00,CLR,,0.02,WeatherDisplay:10.37,2013-07-10 11:18:00,
2013-07-10 07:23:00,74.7,71.6,29.98,SSW,212,1.1,1.1,90,0.00,CLR,,0.02,WeatherDisplay:10.37,2013-07-10 11:23:00,
2013-07-10 07:28:00,74.7,71.6,29.98,SSW,211,2.3,2.3,90,0.00,CLR,,0.02,WeatherDisplay:10.37,2013-07-10 11:28:00,
2013-07-10 07:33:00,74.8,71.3,29.98,SSW,211,2.3,2.3,89,0.00,CLR,,0.02,WeatherDisplay:10.37,2013-07-10 11:33:00,
2013-07-10 07:38:00,74.9,71.4,29.98,SSW,211,1.1,0.0,89,0.00,CLR,,0.02,WeatherDisplay:10.37,2013-07-10 11:38:00,
2013-07-10 07:43:00,75.1,72.0,29.98,SSW,211,1.1,0.0,90,0.00,CLR,,0.02,WeatherDisplay:10.37,2013-07-10 11:43:00,
2013-07-10 07:48:00,75.3,71.8,29.98,SSW,210,1.1,1.1,89,0.00,CLR,,0.02,WeatherDisplay:10.37,2013-07-10 11:48:00,
2013-07-10 07:53:00,75.5,72.0,29.98,SSW,210,3.0,3.0,89,0.00,CLR,,0.02,WeatherDisplay:10.37,2013-07-10 11:53:00,
2013-07-10 07:58:00,75.8,72.3,29.98,SSW,211,5.0,5.0,89,0.00,CLR,,0.02,WeatherDisplay:10.37,2013-07-10 11:58:00,
2013-07-10 08:03:00,76.1,72.3,29.98,SSW,212,1.1,1.1,88,0.00,CLR,,0.02,WeatherDisplay:10.37,2013-07-10 12:03:00,
2013-07-10 08:08:00,76.4,72.6,29.98,SSW,211,2.3,2.3,88,0.00,CLR,,0.02,WeatherDisplay:10.37,2013-07-10 12:08:00,
2013-07-10 08:13:00,76.6,72.8,29.98,SSW,212,2.0,2.0,88,0.00,CLR,,0.02,WeatherDisplay:10.37,2013-07-10 12:13:00,
2013-07-10 08:18:00,76.9,72.7,29.97,SSW,212,3.5,3.5,87,0.00,CLR,,0.02,WeatherDisplay:10.37,2013-07-10 12:18:00,
2013-07-10 08:23:00,77.3,72.8,29.97,SW,221,6.0,6.0,86,0.00,CLR,,0.02,WeatherDisplay:10.37,2013-07-10 12:23:00,
2013-07-10 08:28:00,77.5,72.6,29.97,SW,224,6.0,6.0,85,0.00,CLR,,0.02,WeatherDisplay:10.37,2013-07-10 12:28:00,
2013-07-10 08:33:00,77.7,72.8,29.97,SW,224,6.0,6.0,85,0.00,CLR,,0.02,WeatherDisplay:10.37,2013-07-10 12:33:00,
2013-07-10 08:38:00,78.0,72.8,29.97,SW,222,6.0,6.0,84,0.00,CLR,,0.02,WeatherDisplay:10.37,2013-07-10 12:38:00,
2013-07-10 08:43:00,78.3,73.1,29.97,SW,224,6.0,6.0,84,0.00,CLR,,0.02,WeatherDisplay:10.37,2013-07-10 12:43:00,
2013-07-10 08:48:00,78.4,72.8,29.97,SW,225,4.6,4.6,83,0.00,CLR,,0.02,WeatherDisplay:10.37,2013-07-10 12:48:00,
2013-07-10 08:53:00,78.7,73.1,29.97,SW,226,5.8,5.8,83,0.00,CLR,,0.02,WeatherDisplay:10.37,2013-07-10 12:53:00,
2013-07-10 08:58:00,78.9,72.9,29.97,SW,231,6.0,6.0,82,0.00,CLR,,0.02,WeatherDisplay:10.37,2013-07-10 12:58:00,
2013-07-10 09:03:00,79.3,73.3,29.97,SW,233,11.0,11.0,82,0.00,FEW,,0.02,WeatherDisplay:10.37,2013-07-10 13:03:00,
2013-07-10 09:08:00,79.6,73.6,29.97,SW,234,2.3,2.3,82,0.00,FEW,,0.02,WeatherDisplay:10.37,2013-07-10 13:08:00,
2013-07-10 09:13:00,80.0,73.6,29.97,SW,234,9.0,9.0,81,0.00,FEW,,0.02,WeatherDisplay:10.37,2013-07-10 13:13:00,
2013-07-10 09:19:00,80.2,73.5,29.97,WSW,239,9.2,9.2,80,0.00,FEW,,0.02,WeatherDisplay:10.37,2013-07-10 13:19:00,
2013-07-10 09:24:00,80.6,73.5,29.97,SW,234,3.5,3.5,79,0.00,FEW,,0.02,WeatherDisplay:10.37,2013-07-10 13:24:00,
2013-07-10 09:29:00,80.9,73.8,29.98,WSW,248,6.9,6.9,79,0.00,FEW,,0.02,WeatherDisplay:10.37,2013-07-10 13:29:00,
2013-07-10 09:34:00,81.2,73.7,29.98,WSW,251,5.0,5.0,78,0.00,FEW,,0.02,WeatherDisplay:10.37,2013-07-10 13:34:00,
2013-07-10 09:39:00,81.5,74.0,29.98,WSW,245,3.5,3.5,78,0.00,FEW,,0.02,WeatherDisplay:10.37,2013-07-10 13:39:00,
2013-07-10 09:44:00,81.8,73.9,29.98,WSW,253,8.1,8.1,77,0.00,FEW,,0.02,WeatherDisplay:10.37,2013-07-10 13:44:00,
2013-07-10 09:49:00,81.9,74.0,29.98,WSW,246,6.0,6.0,77,0.00,FEW,,0.02,WeatherDisplay:10.37,2013-07-10 13:49:00,
2013-07-10 09:54:00,82.1,74.2,29.98,WSW,240,8.1,8.1,77,0.00,FEW,,0.02,WeatherDisplay:10.37,2013-07-10 13:54:00,
2013-07-10 09:59:00,82.4,74.1,29.98,SW,232,7.0,7.0,76,0.00,FEW,,0.02,WeatherDisplay:10.37,2013-07-10 13:59:00,
2013-07-10 10:04:00,82.7,74.8,29.98,WSW,257,6.0,6.0,77,0.00,CLR,,0.02,WeatherDisplay:10.37,2013-07-10 14:04:00,
2013-07-10 10:09:00,83.0,74.6,29.98,WSW,249,7.0,7.0,76,0.00,CLR,,0.02,WeatherDisplay:10.37,2013-07-10 14:09:00,
2013-07-10 10:14:00,83.2,74.8,29.97,WSW,249,7.0,7.0,76,0.00,CLR,,0.02,WeatherDisplay:10.37,2013-07-10 14:14:00,
2013-07-10 10:19:00,83.4,74.6,29.97,WSW,252,8.1,8.1,75,0.00,CLR,,0.02,WeatherDisplay:10.37,2013-07-10 14:19:00,
2013-07-10 10:24:00,83.5,74.3,29.98,WSW,247,7.0,7.0,74,0.00,CLR,,0.02,WeatherDisplay:10.37,2013-07-10 14:24:00,
2013-07-10 10:29:00,83.2,74.0,29.97,WSW,243,9.2,9.2,74,0.00,CLR,,0.02,WeatherDisplay:10.37,2013-07-10 14:29:00,
2013-07-10 10:34:00,83.3,74.1,29.97,WSW,244,6.0,6.0,74,0.00,CLR,,0.02,WeatherDisplay:10.37,2013-07-10 14:34:00,
2013-07-10 10:39:00,83.2,74.4,29.97,WSW,241,5.0,5.0,75,0.00,CLR,,0.02,WeatherDisplay:10.37,2013-07-10 14:39:00,
2013-07-10 10:44:00,83.7,74.9,29.97,WSW,238,5.0,5.0,75,0.00,CLR,,0.02,WeatherDisplay:10.37,2013-07-10 14:44:00,
2013-07-10 10:49:00,84.1,74.9,29.97,WSW,239,7.0,7.0,74,0.00,CLR,,0.02,WeatherDisplay:10.37,2013-07-10 14:49:00,
2013-07-10 10:54:00,84.2,74.6,29.97,SW,236,5.0,5.0,73,0.00,CLR,,0.02,WeatherDisplay:10.37,2013-07-10 14:54:00,
2013-07-10 10:59:00,84.3,75.1,29.97,WSW,240,2.3,2.3,74,0.00,CLR,,0.02,WeatherDisplay:10.37,2013-07-10 14:59:00,
2013-07-10 11:04:00,84.2,74.6,29.97,WSW,240,8.0,8.0,73,0.00,FEW,,0.02,WeatherDisplay:10.37,2013-07-10 15:04:00,
2013-07-10 11:09:00,83.8,74.2,29.97,WSW,241,9.2,9.2,73,0.00,FEW,,0.02,WeatherDisplay:10.37,2013-07-10 15:09:00,
2013-07-10 11:14:00,83.6,74.0,29.96,WSW,247,8.0,8.0,73,0.00,FEW,,0.02,WeatherDisplay:10.37,2013-07-10 15:14:00,
2013-07-10 11:19:00,84.0,74.8,29.96,SW,236,9.2,9.2,74,0.00,FEW,,0.02,WeatherDisplay:10.37,2013-07-10 15:19:00,
2013-07-10 11:24:00,84.3,75.1,29.96,SW,232,5.8,5.8,74,0.00,FEW,,0.02,WeatherDisplay:10.37,2013-07-10 15:24:00,
2013-07-10 11:29:00,84.8,74.8,29.96,SW,230,5.0,5.0,72,0.00,FEW,,0.02,WeatherDisplay:10.37,2013-07-10 15:29:00,
2013-07-10 11:34:00,84.4,74.8,29.95,SW,234,5.8,5.8,73,0.00,FEW,,0.02,WeatherDisplay:10.37,2013-07-10 15:34:00,
2013-07-10 11:39:00,84.6,75.0,29.95,SW,234,2.3,2.3,73,0.00,FEW,,0.02,WeatherDisplay:10.37,2013-07-10 15:39:00,
2013-07-10 11:44:00,84.6,75.0,29.95,SW,236,6.0,6.0,73,0.00,FEW,,0.02,WeatherDisplay:10.37,2013-07-10 15:44:00,
2013-07-10 11:49:00,85.0,75.4,29.95,West,263,6.0,6.0,73,0.00,FEW,,0.02,WeatherDisplay:10.37,2013-07-10 15:49:00,
2013-07-10 11:54:00,84.9,74.9,29.94,WSW,254,9.0,9.0,72,0.00,FEW,,0.02,WeatherDisplay:10.37,2013-07-10 15:54:00,
2013-07-10 11:59:00,85.4,76.2,29.94,WSW,252,5.0,5.0,74,0.00,FEW,,0.02,WeatherDisplay:10.37,2013-07-10 15:59:00,
2013-07-10 12:04:00,85.8,74.9,29.94,WSW,237,10.4,10.4,70,0.00,CLR,,0.02,WeatherDisplay:10.37,2013-07-10 16:04:00,
2013-07-10 12:09:00,86.2,75.7,29.94,WSW,243,11.5,11.5,71,0.00,CLR,,0.02,WeatherDisplay:10.37,2013-07-10 16:09:00,
2013-07-10 12:14:00,86.6,76.1,29.94,WSW,249,10.0,10.0,71,0.00,CLR,,0.02,WeatherDisplay:10.37,2013-07-10 16:14:00,
2013-07-10 12:19:00,86.3,75.8,29.95,WSW,243,8.0,8.0,71,0.00,CLR,,0.02,WeatherDisplay:10.37,2013-07-10 16:19:00,
2013-07-10 12:24:00,85.9,75.0,29.94,WSW,238,8.1,8.1,70,0.00,CLR,,0.02,WeatherDisplay:10.37,2013-07-10 16:24:00,
2013-07-10 12:29:00,85.9,75.4,29.94,WSW,244,5.0,5.0,71,0.00,CLR,,0.02,WeatherDisplay:10.37,2013-07-10 16:29:00,
2013-07-10 12:34:00,86.3,75.8,29.94,WSW,257,3.0,3.0,71,0.00,CLR,,0.02,WeatherDisplay:10.37,2013-07-10 16:34:00,
2013-07-10 12:39:00,86.2,75.7,29.94,WSW,247,10.4,10.4,71,0.00,CLR,,0.02,WeatherDisplay:10.37,2013-07-10 16:39:00,
2013-07-10 12:44:00,86.1,75.6,29.94,West,270,9.2,9.2,71,0.00,CLR,,0.02,WeatherDisplay:10.37,2013-07-10 16:44:00,
2013-07-10 12:49:00,86.5,76.0,29.94,West,268,6.0,6.0,71,0.00,CLR,,0.02,WeatherDisplay:10.37,2013-07-10 16:49:00,
2013-07-10 12:54:00,86.7,75.7,29.95,WSW,243,9.2,9.2,70,0.00,CLR,,0.02,WeatherDisplay:10.37,2013-07-10 16:54:00,
2013-07-10 12:59:00,87.3,75.9,29.95,SW,230,7.0,7.0,69,0.00,CLR,,0.02,WeatherDisplay:10.37,2013-07-10 16:59:00,
2013-07-10 13:04:00,87.5,75.6,29.95,WSW,245,6.9,6.9,68,0.00,FEW,,0.02,WeatherDisplay:10.37,2013-07-10 17:04:00,
2013-07-10 13:09:00,87.3,75.9,29.95,SW,234,10.4,10.4,69,0.00,FEW,,0.02,WeatherDisplay:10.37,2013-07-10 17:09:00,
2013-07-10 13:14:00,87.9,76.5,29.95,West,271,11.5,11.5,69,0.00,FEW,,0.02,WeatherDisplay:10.37,2013-07-10 17:14:00,
2013-07-10 13:19:00,87.8,76.4,29.96,WSW,239,9.0,9.0,69,0.00,FEW,,0.02,WeatherDisplay:10.37,2013-07-10 17:19:00,
2013-07-10 13:24:00,87.8,75.5,29.96,WSW,239,9.2,9.2,67,0.00,FEW,,0.02,WeatherDisplay:10.37,2013-07-10 17:24:00,
2013-07-10 13:29:00,87.7,74.9,29.96,WSW,241,11.5,11.5,66,0.00,FEW,,0.02,WeatherDisplay:10.37,2013-07-10 17:29:00,
2013-07-10 13:34:00,87.7,75.8,29.96,WSW,249,11.5,11.5,68,0.00,FEW,,0.02,WeatherDisplay:10.37,2013-07-10 17:34:00,
2013-07-10 13:39:00,87.8,75.5,29.96,WSW,240,8.0,8.0,67,0.00,FEW,,0.02,WeatherDisplay:10.37,2013-07-10 17:39:00,
2013-07-10 13:44:00,87.7,75.4,29.96,WSW,255,4.6,4.6,67,0.00,FEW,,0.02,WeatherDisplay:10.37,2013-07-10 17:44:00,
2013-07-10 13:49:00,87.4,75.5,29.95,WSW,237,8.1,8.1,68,0.00,FEW,,0.02,WeatherDisplay:10.37,2013-07-10 17:49:00,
2013-07-10 13:54:00,87.7,76.3,29.95,WSW,255,9.0,9.0,69,0.00,FEW,,0.02,WeatherDisplay:10.37,2013-07-10 17:54:00,
2013-07-10 13:59:00,88.2,76.3,29.94,WSW,241,9.0,9.0,68,0.00,FEW,,0.02,WeatherDisplay:10.37,2013-07-10 17:59:00,
2013-07-10 14:04:00,88.4,76.0,29.93,West,267,10.4,10.4,67,0.00,CLR,,0.02,WeatherDisplay:10.37,2013-07-10 18:04:00,
2013-07-10 14:09:00,88.6,76.2,29.93,West,259,7.0,7.0,67,0.00,CLR,,0.02,WeatherDisplay:10.37,2013-07-10 18:09:00,
2013-07-10 14:14:00,88.7,75.4,29.92,WSW,237,12.0,12.0,65,0.00,CLR,,0.02,WeatherDisplay:10.37,2013-07-10 18:14:00,
2013-07-10 14:19:00,88.7,75.9,29.91,WSW,258,7.0,7.0,66,0.00,CLR,,0.02,WeatherDisplay:10.37,2013-07-10 18:19:00,
2013-07-10 14:24:00,88.8,75.5,29.90,WSW,245,9.2,9.2,65,0.00,CLR,,0.02,WeatherDisplay:10.37,2013-07-10 18:24:00,
2013-07-10 14:29:00,88.8,75.0,29.90,WSW,247,12.0,12.0,64,0.00,CLR,,0.02,WeatherDisplay:10.37,2013-07-10 18:29:00,
2013-07-10 14:34:00,88.6,75.3,29.89,SW,229,8.1,8.1,65,0.00,CLR,,0.02,WeatherDisplay:10.37,2013-07-10 18:34:00,
2013-07-10 14:39:00,88.9,75.6,29.88,WSW,248,8.1,8.1,65,0.00,CLR,,0.02,WeatherDisplay:10.37,2013-07-10 18:39:00,
2013-07-10 14:44:00,89.2,76.4,29.88,SW,234,10.0,10.0,66,0.00,CLR,,0.02,WeatherDisplay:10.37,2013-07-10 18:44:00,
2013-07-10 14:49:00,89.2,75.9,29.86,WSW,243,8.1,8.1,65,0.00,CLR,,0.02,WeatherDisplay:10.37,2013-07-10 18:49:00,
2013-07-10 14:54:00,89.5,74.8,29.85,WSW,255,12.0,12.0,62,0.00,CLR,,0.02,WeatherDisplay:10.37,2013-07-10 18:54:00,
2013-07-10 14:59:00,89.6,75.3,29.86,SW,225,5.0,5.0,63,0.00,CLR,,0.02,WeatherDisplay:10.37,2013-07-10 18:59:00,
2013-07-10 15:04:00,89.5,75.2,29.86,WSW,248,8.1,8.1,63,0.00,CLR,,0.02,WeatherDisplay:10.37,2013-07-10 19:04:00,
2013-07-10 15:09:00,88.9,75.6,29.86,SW,230,11.5,11.5,65,0.00,CLR,,0.02,WeatherDisplay:10.37,2013-07-10 19:09:00,
2013-07-10 15:14:00,88.9,75.6,29.86,SW,228,6.0,6.0,65,0.00,CLR,,0.02,WeatherDisplay:10.37,2013-07-10 19:14:00,
2013-07-10 15:19:00,88.9,74.2,29.85,SW,232,7.0,7.0,62,0.00,CLR,,0.02,WeatherDisplay:10.37,2013-07-10 19:19:00,
2013-07-10 15:24:00,88.4,74.7,29.85,SW,233,9.0,9.0,64,0.00,CLR,,0.02,WeatherDisplay:10.37,2013-07-10 19:24:00,
2013-07-10 15:29:00,87.6,73.9,29.85,WSW,245,5.8,5.8,64,0.00,CLR,,0.02,WeatherDisplay:10.37,2013-07-10 19:29:00,
2013-07-10 15:34:00,86.6,73.4,29.86,WSW,237,8.1,8.1,65,0.00,CLR,,0.02,WeatherDisplay:10.37,2013-07-10 19:34:00,
2013-07-10 15:39:00,86.3,74.0,29.89,NE,36,11.0,11.0,67,0.00,CLR,,0.02,WeatherDisplay:10.37,2013-07-10 19:39:00,
2013-07-10 15:44:00,81.8,70.2,29.91,WNW,292,13.8,13.8,68,0.00,CLR,,0.02,WeatherDisplay:10.37,2013-07-10 19:44:00,
2013-07-10 15:49:00,76.5,68.7,29.91,WNW,293,9.0,9.0,77,0.02,RA,,0.04,WeatherDisplay:10.37,2013-07-10 19:49:00,
2013-07-10 15:54:00,73.6,67.8,29.93,West,280,11.5,11.5,82,0.08,RA,,0.10,WeatherDisplay:10.37,2013-07-10 19:54:00,
2013-07-10 15:59:00,71.7,66.9,29.94,West,272,5.8,5.8,85,0.34,RA,,0.41,WeatherDisplay:10.37,2013-07-10 19:59:00,
2013-07-10 16:04:00,70.7,66.0,29.92,NW,308,5.0,5.0,85,0.56,RA,,0.60,WeatherDisplay:10.37,2013-07-10 20:04:00,
2013-07-10 16:09:00,70.2,66.1,29.91,West,261,4.0,4.0,87,0.65,RA,,0.68,WeatherDisplay:10.37,2013-07-10 20:09:00,
2013-07-10 16:14:00,70.4,67.0,29.92,West,264,3.5,3.5,89,0.68,RA,,0.70,WeatherDisplay:10.37,2013-07-10 20:14:00,
2013-07-10 16:19:00,70.7,67.3,29.95,West,267,8.1,8.1,89,0.72,RA,,0.74,WeatherDisplay:10.37,2013-07-10 20:19:00,
2013-07-10 16:24:00,70.7,67.6,29.95,WSW,243,13.0,13.0,90,0.82,RA,,0.85,WeatherDisplay:10.37,2013-07-10 20:24:00,
2013-07-10 16:29:00,70.5,67.4,29.93,West,274,1.1,1.1,90,0.95,RA,,0.97,WeatherDisplay:10.37,2013-07-10 20:29:00,
2013-07-10 16:34:00,70.4,67.3,29.92,West,274,1.0,0.0,90,0.99,RA,,1.01,WeatherDisplay:10.37,2013-07-10 20:34:00,
2013-07-10 16:39:00,70.2,67.1,29.93,West,274,3.0,3.0,90,1.00,RA,,1.02,WeatherDisplay:10.37,2013-07-10 20:39:00,
2013-07-10 16:44:00,70.3,67.2,29.92,West,267,4.6,4.6,90,1.01,RA,,1.03,WeatherDisplay:10.37,2013-07-10 20:44:00,
2013-07-10 16:49:00,70.4,67.3,29.92,West,267,0.0,0.0,90,1.00,RA,,1.04,WeatherDisplay:10.37,2013-07-10 20:49:00,
2013-07-10 16:54:00,70.5,67.4,29.91,West,267,0.0,0.0,90,0.96,RA,,1.06,WeatherDisplay:10.37,2013-07-10 20:54:00,
2013-07-10 16:59:00,70.7,67.6,29.90,West,267,3.5,3.5,90,0.78,RA,,1.08,WeatherDisplay:10.37,2013-07-10 20:59:00,
2013-07-10 17:04:00,70.9,67.8,29.90,West,267,2.3,2.3,90,0.47,RA,,1.08,WeatherDisplay:10.37,2013-07-10 21:04:00,
2013-07-10 17:09:00,71.1,68.0,29.90,West,267,4.0,4.0,90,0.40,RA,,1.09,WeatherDisplay:10.37,2013-07-10 21:09:00,
2013-07-10 17:14:00,71.3,68.2,29.90,WSW,241,4.0,4.0,90,0.39,RA,,1.10,WeatherDisplay:10.37,2013-07-10 21:14:00,
2013-07-10 17:19:00,71.3,68.2,29.90,SW,236,4.0,4.0,90,0.39,RA,,1.10,WeatherDisplay:10.37,2013-07-10 21:19:00,
2013-07-10 17:24:00,71.3,68.2,29.90,SW,222,3.5,3.5,90,0.26,RA,,1.11,WeatherDisplay:10.37,2013-07-10 21:24:00,
2013-07-10 17:29:00,71.3,68.2,29.89,SW,221,3.5,3.5,90,0.15,RA,,1.12,WeatherDisplay:10.37,2013-07-10 21:29:00,
2013-07-10 17:34:00,71.3,68.2,29.89,SW,226,5.0,5.0,90,0.11,RA,,1.12,WeatherDisplay:10.37,2013-07-10 21:34:00,
2013-07-10 17:39:00,71.3,68.2,29.89,SW,215,8.0,8.0,90,0.10,OVC,,1.12,WeatherDisplay:10.37,2013-07-10 21:39:00,
2013-07-10 17:44:00,71.3,68.2,29.89,WSW,238,4.6,4.6,90,0.10,RA,,1.13,WeatherDisplay:10.37,2013-07-10 21:44:00,
2013-07-10 17:49:00,71.3,68.2,29.88,South,185,5.0,5.0,90,0.10,RA,,1.14,WeatherDisplay:10.37,2013-07-10 21:49:00,
2013-07-10 17:54:00,71.3,68.2,29.88,South,188,3.5,3.5,90,0.08,RA,,1.14,WeatherDisplay:10.37,2013-07-10 21:54:00,
2013-07-10 17:59:00,71.3,68.2,29.88,SSW,195,6.0,6.0,90,0.07,OVC,,1.14,WeatherDisplay:10.37,2013-07-10 21:59:00,
2013-07-10 18:04:00,71.3,68.2,29.88,South,189,3.0,3.0,90,0.07,-RA,,1.15,WeatherDisplay:10.37,2013-07-10 22:04:00,
2013-07-10 18:09:00,71.4,68.3,29.87,South,188,3.5,3.5,90,0.07,-RA,,1.16,WeatherDisplay:10.37,2013-07-10 22:09:00,
2013-07-10 18:14:00,71.5,68.4,29.86,South,187,5.0,5.0,90,0.07,-RA,,1.16,WeatherDisplay:10.37,2013-07-10 22:14:00,
2013-07-10 18:19:00,71.7,68.6,29.86,South,187,2.3,2.3,90,0.07,-RA,,1.17,WeatherDisplay:10.37,2013-07-10 22:19:00,
2013-07-10 18:24:00,71.7,68.6,29.85,South,187,2.3,2.3,90,0.06,-RA,,1.17,WeatherDisplay:10.37,2013-07-10 22:24:00,
2013-07-10 18:29:00,71.7,68.6,29.84,South,184,4.0,4.0,90,0.06,-RA,,1.18,WeatherDisplay:10.37,2013-07-10 22:29:00,
2013-07-10 18:34:00,71.8,68.7,29.84,SSE,164,5.0,5.0,90,0.06,-RA,,1.18,WeatherDisplay:10.37,2013-07-10 22:34:00,
2013-07-10 18:39:00,71.7,68.6,29.85,SSE,168,0.0,0.0,90,0.06,-RA,,1.18,WeatherDisplay:10.37,2013-07-10 22:39:00,
2013-07-10 18:44:00,71.7,68.6,29.86,South,169,4.0,4.0,90,0.05,-RA,,1.18,WeatherDisplay:10.37,2013-07-10 22:44:00,
2013-07-10 18:49:00,71.6,68.5,29.86,SSE,168,4.0,4.0,90,0.04,-RA,,1.18,WeatherDisplay:10.37,2013-07-10 22:49:00,
2013-07-10 18:54:00,71.5,68.4,29.86,South,169,2.0,2.0,90,0.04,-RA,,1.18,WeatherDisplay:10.37,2013-07-10 22:54:00,
2013-07-10 18:59:00,71.6,68.5,29.87,South,170,0.0,0.0,90,0.04,-RA,,1.18,WeatherDisplay:10.37,2013-07-10 22:59:00,
2013-07-10 19:04:00,71.6,68.5,29.87,South,170,4.0,4.0,90,0.03,FEW,,1.18,WeatherDisplay:10.37,2013-07-10 23:04:00,
2013-07-10 19:09:00,71.7,68.6,29.88,South,170,2.3,0.0,90,0.03,FEW,,1.18,WeatherDisplay:10.37,2013-07-10 23:09:00,
2013-07-10 19:14:00,71.7,68.6,29.88,South,173,5.0,5.0,90,0.02,FEW,,1.18,WeatherDisplay:10.37,2013-07-10 23:14:00,
2013-07-10 19:19:00,71.7,68.6,29.89,South,172,2.0,2.0,90,0.01,FEW,,1.18,WeatherDisplay:10.37,2013-07-10 23:19:00,
2013-07-10 19:24:00,71.7,68.6,29.89,South,174,2.0,2.0,90,0.01,FEW,,1.18,WeatherDisplay:10.37,2013-07-10 23:24:00,
2013-07-10 19:29:00,71.7,68.6,29.90,South,183,4.6,4.6,90,0.00,FEW,,1.18,WeatherDisplay:10.37,2013-07-10 23:29:00,
2013-07-10 19:34:00,71.8,68.7,29.90,South,185,5.0,5.0,90,0.00,FEW,,1.18,WeatherDisplay:10.37,2013-07-10 23:34:00,
2013-07-10 19:39:00,71.7,68.6,29.90,SSW,193,3.5,3.5,90,0.00,FEW,,1.18,WeatherDisplay:10.37,2013-07-10 23:39:00,
2013-07-10 19:44:00,71.7,68.6,29.90,SSW,194,5.0,5.0,90,0.00,FEW,,1.18,WeatherDisplay:10.37,2013-07-10 23:44:00,
2013-07-10 19:49:00,71.5,68.4,29.90,SSW,194,4.0,4.0,90,0.00,FEW,,1.18,WeatherDisplay:10.37,2013-07-10 23:49:00,
2013-07-10 19:54:00,71.4,68.3,29.91,SSW,194,2.3,2.3,90,0.00,FEW,,1.18,WeatherDisplay:10.37,2013-07-10 23:54:00,
2013-07-10 19:59:00,71.2,68.1,29.91,SSW,197,6.0,6.0,90,0.00,FEW,,1.18,WeatherDisplay:10.37,2013-07-10 23:59:00,
2013-07-10 20:04:00,71.2,68.1,29.91,SSW,197,0.0,0.0,90,0.00,SCT,,1.18,WeatherDisplay:10.37,2013-07-11 00:04:00,
2013-07-10 20:09:00,71.0,67.9,29.91,SSW,197,2.0,2.0,90,0.00,SCT,,1.18,WeatherDisplay:10.37,2013-07-11 00:09:00,
2013-07-10 20:14:00,70.8,67.7,29.91,SSW,197,1.1,1.1,90,0.00,SCT,,1.18,WeatherDisplay:10.37,2013-07-11 00:14:00,
2013-07-10 20:19:00,70.8,67.7,29.91,SSW,197,3.5,3.5,90,0.00,SCT,,1.18,WeatherDisplay:10.37,2013-07-11 00:19:00,
2013-07-10 20:24:00,70.8,67.7,29.91,SSW,197,0.0,0.0,90,0.00,SCT,,1.18,WeatherDisplay:10.37,2013-07-11 00:24:00,
2013-07-10 20:29:00,70.8,67.7,29.91,SSW,197,0.0,0.0,90,0.00,SCT,,1.18,WeatherDisplay:10.37,2013-07-11 00:29:00,
2013-07-10 20:34:00,70.7,67.6,29.91,SSW,197,0.0,0.0,90,0.00,SCT,,1.18,WeatherDisplay:10.37,2013-07-11 00:34:00,
2013-07-10 20:39:00,70.7,67.6,29.91,SSW,197,0.0,0.0,90,0.00,SCT,,1.18,WeatherDisplay:10.37,2013-07-11 00:39:00,
2013-07-10 20:44:00,70.8,67.7,29.91,SSW,197,0.0,0.0,90,0.00,SCT,,1.18,WeatherDisplay:10.37,2013-07-11 00:44:00,
2013-07-10 20:49:00,70.8,67.7,29.91,SSW,197,0.0,0.0,90,0.00,SCT,,1.18,WeatherDisplay:10.37,2013-07-11 00:49:00,
2013-07-10 20:54:00,70.7,67.6,29.91,SSW,197,0.0,0.0,90,0.00,SCT,,1.18,WeatherDisplay:10.37,2013-07-11 00:54:00,
2013-07-10 20:59:00,70.7,67.6,29.91,SSW,197,0.0,0.0,90,0.00,SCT,,1.18,WeatherDisplay:10.37,2013-07-11 00:59:00,
2013-07-10 21:04:00,70.7,67.6,29.91,SSW,197,0.0,0.0,90,0.00,FEW,,1.18,WeatherDisplay:10.37,2013-07-11 01:04:00,
2013-07-10 21:09:00,70.7,67.6,29.91,SSW,197,0.0,0.0,90,0.00,FEW,,1.18,WeatherDisplay:10.37,2013-07-11 01:09:00,
2013-07-10 21:15:00,70.7,67.6,29.91,SSW,197,0.0,0.0,90,0.00,FEW,,1.18,WeatherDisplay:10.37,2013-07-11 01:15:00,
2013-07-10 21:20:00,70.6,67.5,29.91,SSW,197,0.0,0.0,90,0.00,FEW,,1.18,WeatherDisplay:10.37,2013-07-11 01:20:00,
2013-07-10 21:25:00,70.5,67.4,29.91,SSW,197,0.0,0.0,90,0.00,FEW,,1.18,WeatherDisplay:10.37,2013-07-11 01:25:00,
2013-07-10 21:30:00,70.5,67.4,29.91,SSW,197,0.0,0.0,90,0.00,FEW,,1.18,WeatherDisplay:10.37,2013-07-11 01:30:00,
2013-07-10 21:35:00,70.4,67.3,29.92,SSW,197,0.0,0.0,90,0.00,FEW,,1.18,WeatherDisplay:10.37,2013-07-11 01:35:00,
2013-07-10 21:40:00,70.4,67.3,29.92,SSW,197,0.0,0.0,90,0.00,FEW,,1.18,WeatherDisplay:10.37,2013-07-11 01:40:00,
2013-07-10 21:45:00,70.4,67.3,29.92,SSW,197,0.0,0.0,90,0.00,FEW,,1.18,WeatherDisplay:10.37,2013-07-11 01:45:00,
2013-07-10 21:50:00,70.4,67.3,29.92,SSW,197,0.0,0.0,90,0.00,FEW,,1.18,WeatherDisplay:10.37,2013-07-11 01:50:00,
2013-07-10 21:55:00,70.4,67.3,29.92,SSW,197,0.0,0.0,90,0.00,FEW,,1.18,WeatherDisplay:10.37,2013-07-11 01:55:00,
2013-07-10 22:00:00,70.5,67.4,29.93,SSW,197,0.0,0.0,90,0.00,FEW,,1.18,WeatherDisplay:10.37,2013-07-11 02:00:00,
2013-07-10 22:05:00,70.5,67.4,29.93,SSW,197,0.0,0.0,90,0.00,BKN,,1.18,WeatherDisplay:10.37,2013-07-11 02:05:00,
2013-07-10 22:10:00,70.4,67.3,29.93,SSW,197,0.0,0.0,90,0.00,BKN,,1.18,WeatherDisplay:10.37,2013-07-11 02:10:00,
2013-07-10 22:15:00,70.5,67.4,29.94,SSW,197,0.0,0.0,90,0.00,BKN,,1.18,WeatherDisplay:10.37,2013-07-11 02:15:00,
2013-07-10 22:20:00,70.5,67.4,29.94,SSW,197,0.0,0.0,90,0.00,BKN,,1.18,WeatherDisplay:10.37,2013-07-11 02:20:00,
2013-07-10 22:25:00,70.5,67.4,29.94,SSW,197,0.0,0.0,90,0.00,BKN,,1.18,WeatherDisplay:10.37,2013-07-11 02:25:00,
2013-07-10 22:30:00,70.5,67.4,29.95,SSW,197,0.0,0.0,90,0.00,BKN,,1.18,WeatherDisplay:10.37,2013-07-11 02:30:00,
2013-07-10 22:35:00,70.5,67.4,29.95,SSW,197,0.0,0.0,90,0.00,BKN,,1.18,WeatherDisplay:10.37,2013-07-11 02:35:00,
2013-07-10 22:40:00,70.5,67.4,29.95,SSW,197,0.0,0.0,90,0.00,BKN,,1.18,WeatherDisplay:10.37,2013-07-11 02:40:00,
2013-07-10 22:46:00,70.6,67.5,29.94,SSW,197,0.0,0.0,90,0.00,BKN,,1.18,WeatherDisplay:10.37,2013-07-11 02:46:00,
2013-07-10 22:51:00,70.6,67.5,29.95,SSW,197,0.0,0.0,90,0.00,BKN,,1.18,WeatherDisplay:10.37,2013-07-11 02:51:00,
2013-07-10 22:56:00,70.7,67.6,29.95,SSW,197,0.0,0.0,90,0.00,BKN,,1.18,WeatherDisplay:10.37,2013-07-11 02:56:00,
2013-07-10 23:01:00,70.6,67.5,29.95,SSW,197,0.0,0.0,90,0.00,BKN,,1.18,WeatherDisplay:10.37,2013-07-11 03:01:00,
2013-07-10 23:06:00,70.6,67.5,29.95,SSW,197,1.1,1.1,90,0.00,OVC,,1.18,WeatherDisplay:10.37,2013-07-11 03:06:00,
2013-07-10 23:11:00,70.7,67.6,29.95,SSW,197,0.0,0.0,90,0.00,OVC,,1.18,WeatherDisplay:10.37,2013-07-11 03:11:00,
2013-07-10 23:16:00,70.7,67.6,29.95,SSW,197,0.0,0.0,90,0.00,OVC,,1.18,WeatherDisplay:10.37,2013-07-11 03:16:00,
2013-07-10 23:21:00,70.7,67.6,29.95,SSW,197,0.0,0.0,90,0.00,OVC,,1.18,WeatherDisplay:10.37,2013-07-11 03:21:00,
2013-07-10 23:26:00,70.7,67.6,29.95,SSW,197,0.0,0.0,90,0.00,OVC,,1.18,WeatherDisplay:10.37,2013-07-11 03:26:00,
2013-07-10 23:31:00,70.7,67.6,29.95,SSW,197,0.0,0.0,90,0.00,OVC,,1.18,WeatherDisplay:10.37,2013-07-11 03:31:00,
2013-07-10 23:36:00,70.7,67.6,29.95,SSW,197,0.0,0.0,90,0.00,OVC,,1.18,WeatherDisplay:10.37,2013-07-11 03:36:00,
2013-07-10 23:41:00,70.7,67.6,29.95,SSW,197,0.0,0.0,90,0.00,OVC,,1.18,WeatherDisplay:10.37,2013-07-11 03:41:00,
2013-07-10 23:46:00,70.7,67.6,29.94,SSW,197,0.0,0.0,90,0.00,OVC,,1.18,WeatherDisplay:10.37,2013-07-11 03:46:00,
2013-07-10 23:51:00,70.7,67.6,29.94,SSW,197,0.0,0.0,90,0.00,OVC,,1.18,WeatherDisplay:10.37,2013-07-11 03:51:00,
2013-07-10 23:56:00,70.7,67.6,29.94,SSW,197,0.0,0.0,90,0.00,OVC,,1.18,WeatherDisplay:10.37,2013-07-11 03:56:00,